Location: Newark
(43.6583°N, 1.6617°E)
Time: 04:21:05
(UTC+00:00)

Transit 4A - Pass Details

Date: 02 September 2019
Orbit: 865 x 980 km, 66.8° (Epoch: 19 September)

Event Time Altitude Azimuth Distance (km) Brightness Sun altitude
Rises 00:52:36 0° 325° (NW) 3,618 11.4 -36.5°
Reaches altitude 10° 00:55:12 10° 323° (NW) 2,653 10.6 -36.4°
Enters shadow 00:57:20 22° 317° (NW) 1,898 9.7 -36.3°
Maximum altitude 01:01:16 61° 244° (WSW) 1,028 - -36.0°
Drops below altitude 10° 01:07:06 10° 165° (SSE) 2,558 - -35.6°
Sets 01:09:35 0° 162° (SSE) 3,479 - -35.4°
